Location: Audrecelles
(50.8240°N, 1.5923°E)
Time: 02:36:37
(UTC+00:00)

Cosmos 44 - Pass Details

Date: 16 October 2025
Orbit: 576 x 774 km, 65.1° (Epoch: 13 November)

Event Time Altitude Azimuth Distance (km) Brightness Sun altitude
Exits shadow 04:52:55 - 322° (NW) 2,605 5.9 -14.2°
Reaches altitude 10° 04:54:02 10° 325° (NW) 2,184 5.6 -14.1°
Maximum altitude 04:58:55 51° 42° (NE) 924 4.2 -13.3°
Drops below altitude 10° 05:04:01 10° 118° (ESE) 2,280 7.0 -12.5°
Sets 05:06:32 0° 124° (ESE) 3,220 7.7 -12.1°
